Погода в Шателе

Франция     46°15′58″N   6°50′29″E
темп.,
°C
ветер,
м/с
пор.,
м/с
влажн.,
%
обл.,
%
осадки,
мм/ч
давл.,
гПа
погр.,
м
4 июля, пн
пн423:00+15юв118084 0.0 102113
02:00+14ю2186100 0.3 102118
05:00+13ююв1193100 1.1 102115
08:00+15ююв1194100 2.7 102032
11:00+18зсз228676 2.0 1019201
14:00+21зсз236730 5.6 1019833
17:00+21сз23658 2.8 1018736
20:00+17сз128699 6.6 101828
5 июля, вт
вт523:00+13зюз119197 3.8 102019
02:00+11ююв119611 6.1 102117
05:00+10ююв11971 0.4 102213
08:00+13зсз119421 0.6 1022205
11:00+16сз227578 0.1 1022797
14:00+17сз226488 0.4 10221027
17:00+18ссз125691 0.1 10221233
20:00+17с22690 0.1 1022146
6 июля, ср
ср623:00+11вюв21860 0.0 102419
02:00+9юв22830 0.0 102420
05:00+9юв22850 0.0 102421
08:00+13в11710 0.0 1023183
11:00+18с22500 0.0 10221095
14:00+20ссз32420 0.0 10221455
17:00+20ссз32383 0.0 10211416
20:00+16с23654 0.0 1022142
7 июля, чт
чт723:00+10всв119177 0.0 102416
02:00+9вюв11940 0.0 102317
05:00+8вюв21940 0.0 102318
08:00+12св12790 0.0 1023233
11:00+17ссз33560 0.0 10221154
14:00+19ссз33403 0.0 10221540
17:00+18ссз435573 0.1 10221479
20:00+13ссв23921 1.7 1024201
8 июля, пт
пт823:00+9всв11962 0.1 102624
02:00+8вюв22974 0.1 102637
05:00+7вюв22975 0.0 102535
08:00+10всв12923 0.0 1026175
11:00+16с33591 0.0 10241029
14:00+18с44440 0.0 10241315
17:00+18с34430 0.0 10231302
20:00+15ссв23620 0.0 1024244